Weather in Verkhniy At-Uryakh

Russia / Magadan District     62°39′05″N   150°06′21″E
temp.,
°C
wind,
m/s
gust,
m/s
humid.,
%
clouds,
%
prec.,
mm/h
press.,
hPa
HPBL,
m
26 october, tue
tue2623:00−20wsw22895 0.0 10089
02:00−22wsw22925 0.0 10109
05:00−22w219313 0.0 10119
08:00−22wsw21945 0.0 10129
11:00−18w11895 0.0 101230
14:00−15ssw00875 0.0 101140
17:00−19wsw11935 0.0 10139
20:00−21wsw22925 0.0 10159
27 october, wed
wed2723:00−22wsw22915 0.0 10169
02:00−22wsw21925 0.0 10179
05:00−23w11935 0.0 10189
08:00−23wsw11935 0.0 10199
11:00−18wsw11885 0.0 101932
14:00−15s118694 0.0 101738
17:00−19sw119283 0.0 10189
20:00−20wsw219263 0.0 10199
28 october, thu
thu2823:00−21wsw219237 0.0 10199
02:00−21wsw229286 0.0 10189
05:00−19wsw1191100 0.0 101710
08:00−19wsw119053 0.0 10179
11:00−17sw11855 0.0 101631
14:00−13sw11825 0.0 101432
17:00−18wsw22885 0.0 10159
20:00−20wsw228862 0.0 10159
29 october, fri
fri2923:00−20wsw229037 0.0 101510
02:00−17wsw228580 0.0 101314
05:00−19wsw32885 0.0 101411
08:00−19wsw328722 0.0 101313
11:00−13sw338663 0.0 101254
14:00−12sw55832 0.0 101269
17:00−17wsw43841 0.0 101318
20:00−18wsw43840 0.0 101423
30 october, sat
sat3023:00−21w2289100 0.0 10169
02:00−16w2287100 0.0 101515
05:00−14w2196100 0.4 101548
08:00−14wsw2196100 0.4 101618
11:00−14wnw1193100 0.6 101674
14:00−12nw1292100 0.2 1016156
17:00−15wnw219796 0.3 10179
20:00−15n3397100 0.3 101936